OBJECT AA, 61759

Orbit data source: Space-Track

You're viewing an Uncataloged Satellite

Recently launched and/or uncataloged satellites may have evolving metadata. Metadata may include but not limited to: Owner, Maufacturer, Bus, Motor, and Mission.

OBJECT AA, 61759 is a satellite in SSO that was launched on Mon, 04 Nov 2024 UTC via a SOYUZ-2-1B launch vehicle from the Vostochny Cosmodrome (VOSTO). Unknown objects in Earth's orbit typically refer to objects detected orbiting the Earth but have not yet been identified or cataloged. These objects could be anything from previously untracked satellites, spent rocket stages, debris from satellite collisions, or even natural meteoroids temporarily captured by Earth's gravity.

Loading next visibility...
Identifier
61759, 2024-199AA
Orbit
SSO
Country
Flag of TBDTBD
Related business
Manufacturer
Sputniks
Mission
Operational Commercial Communications
Bus & Motor
CUBESAT 3U?, Unknown motor
Mass
3 kg wet, 3 kg dry
Launch date (UTC)
2024-11-04 (1 year ago)
Launch vehicle
SOYUZ-2-1B
Launch site
Vostochny Cosmodrome (VOSTO)
Object type
Unknown
Shape & HBR
Box, 0.1 m
Radar Cross Section
0.035 m², Small (<0.1 m²)

Expand to show TLE details & history
Last TLE update: 14 hours ago

TLE from 14 hours ago
0 OBJECT AA
1 61759U 24199AA  25312.82559066  .00004786  00000-0  42801-3 0  9990
2 61759  97.3369 161.0145 0007641  92.5586 267.6511 14.96283264102161
Epoch: 2025-11-08T19:48Z
TLE epoch observation values (Epoch: 2025-11-08T19:48:51.033Z)
Latitude
-0.00002°
Longitude
175.55222°
Altitude
581.674 km
Speed
7.569 km/s
True Right ascension
10h 44m 03s
True Declination
0° 00' 00"
Sunlit
Object was in daylight at epoch
Visualization orbit readout
Latitude
Unknown
Longitude
Unknown
Altitude
Unknown
Speed
Unknown
Apparent Right ascension
Unknown
Apparent Declination
Unknown
Sunlit
N/A
Visualization observer readout
Local Sidereal Time
06:08:53
Azimuth
Unknown
Elevation
Unknown
Doppler factor
Unknown
Orbital elements
Apogee altitude
580.7 km
Perigee altitude
570.074 km
Semi-major axis
6,953.524 km
Eccentricity
0.00076
Inclination
97.3369°
RAAN
161.0145°
Arg. of periapsis
92.5586°
True anomaly
267.56362°
Mean anomaly
267.6511°
Eccentric anomaly
267.60736°
Mean motion
3.74314 °/min
Orbital period
96.18 mins
BSTAR
0.00042801
Loading maneuver chart data...
Computing Atmospheric mass density...
Loading historical data...
Loading historical data...
Loading historical data...
Loading historical data...
Loading historical data...
Loading historical data...
Loading historical data...

Documentation

Showing up to 5 results
|